Weather History for Marshalltown, IA

Change the Weather History Date:

Wednesday, October 26, 2011

  Actual Average Record
Temperature  
Mean Temperature 47 °F 46 °F  
Max Temperature 53 °F 57 °F 73 °F (1996)
Min Temperature 40 °F 35 °F 21 °F (1997)
Degree Days  
Heating Degree Days 18 19  
Month to date heating degree days 255 372  
Since 1 July heating degree days 458 532  
Cooling Degree Days 0 0  
Month to date cooling degree days 15 10  
Year to date cooling degree days 896 728  
Moisture  
Dew Point 37 °F    
Average Humidity 70    
Maximum Humidity 85    
Minimum Humidity 54    
Precipitation  
Precipitation 0.00 in 0.10 in 0.88 in (2004)
Month to date precipitation 1.09 2.07  
Year to date precipitation 22.75  
Sea Level Pressure  
Sea Level Pressure 30.02 in    
Wind  
Wind Speed 11 mph (North)    
Max Wind Speed 21 mph    
Max Gust Speed 28 mph    
Visibility 10 miles    
Events      
T = Trace of Precipitation, MM = Missing Value Source: NWS Daily Summary

Daily Weather History Graph

Daily Weather History Graph

Search for Another Location

Airport:

Trip Planner

Search our weather history database for the weather conditions in past years. The results will help you decide how hot, cold, wet, or windy it might be!

Date:

Astronomy

Oct. 26, 2011 Rise Set
Actual Time 7:36 AM CDT 6:13 PM CDT
Civil Twilight 7:08 AM CDT 6:42 PM CDT
Nautical Twilight 6:35 AM CDT 7:15 PM CDT
Astronomical Twilight 6:02 AM CDT 7:47 PM CDT
Moon 7:26 AM CDT (10/26) 5:55 PM CDT (10/26)
Length of Visible Light 11h 34m
Length of Day
10h 36m
Waning Crescent, 0% of the Moon is Illuminated
Oct 26
Waning Crescent
Oct 26
New
Nov 2
First Quarter
Nov 10
Full
Nov 18
Last Quarter

Hourly Weather History & Observations

Time (CDT) Temp. Windchill Dew Point Humidity Pressure Visibility Wind Dir Wind Speed Gust Speed Precip Events Conditions
12:53 AM 46.9 °F - 41.0 °F 80% 29.92 in 10.0 mi NNW 19.6 mph 25.3 mph N/A   Overcast
1:53 AM 46.0 °F 39.0 °F 41.0 °F 83% 29.93 in 10.0 mi North 17.3 mph - N/A   Overcast
2:53 AM 45.0 °F 37.4 °F 39.9 °F 82% 29.97 in 10.0 mi North 18.4 mph - N/A   Overcast
3:53 AM 45.0 °F 37.6 °F 39.0 °F 80% 29.96 in 10.0 mi North 17.3 mph - N/A   Overcast
4:53 AM 44.1 °F 37.7 °F 39.0 °F 82% 29.97 in 10.0 mi North 12.7 mph - N/A   Overcast
5:31 AM 44.6 °F 38.4 °F 37.4 °F 76% 29.98 in 10.0 mi North 12.7 mph - N/A   Overcast
6:31 AM 41.0 °F 34.7 °F 35.6 °F 81% 29.99 in 10.0 mi NNW 10.4 mph - N/A   Scattered Clouds
7:19 AM 39.2 °F 30.8 °F 35.6 °F 87% 29.99 in 10.0 mi NNW 15.0 mph - N/A   Mostly Cloudy
7:53 AM 41.0 °F 33.9 °F 36.0 °F 82% 30.03 in 10.0 mi NNW 12.7 mph - N/A   Overcast
8:08 AM 42.8 °F 35.8 °F 37.4 °F 81% 30.02 in 10.0 mi North 13.8 mph - N/A   Overcast
8:53 AM 42.1 °F 36.1 °F 37.0 °F 82% 30.04 in 10.0 mi North 10.4 mph - N/A   Overcast
9:53 AM 43.0 °F 36.4 °F 37.0 °F 80% 30.06 in 10.0 mi North 12.7 mph - N/A   Overcast
10:53 AM 45.0 °F 38.2 °F 37.0 °F 74% 30.07 in 10.0 mi North 15.0 mph - N/A   Mostly Cloudy
11:02 AM 44.6 °F 38.4 °F 37.4 °F 76% 30.05 in 10.0 mi North 12.7 mph - N/A   Scattered Clouds
11:53 AM 46.9 °F - 37.9 °F 71% 30.06 in 10.0 mi North 10.4 mph - N/A   Scattered Clouds
12:53 PM 48.9 °F - 37.9 °F 66% 30.06 in 10.0 mi North 16.1 mph - N/A   Scattered Clouds
1:53 PM 50.0 °F - 37.9 °F 63% 30.05 in 10.0 mi NNW 13.8 mph 21.9 mph N/A   Scattered Clouds
2:53 PM 52.0 °F - 37.0 °F 57% 30.03 in 10.0 mi North 16.1 mph 21.9 mph N/A   Overcast
3:53 PM 51.1 °F - 36.0 °F 56% 30.03 in 10.0 mi North 11.5 mph - N/A   Mostly Cloudy
4:53 PM 50.0 °F - 35.1 °F 57% 30.02 in 10.0 mi North 12.7 mph - N/A   Scattered Clouds
5:53 PM 48.9 °F - 35.1 °F 59% 30.03 in 10.0 mi North 5.8 mph - N/A   Partly Cloudy
6:53 PM 46.0 °F 43.9 °F 35.1 °F 66% 30.05 in 10.0 mi NNW 4.6 mph - N/A   Clear
7:53 PM 44.1 °F - 34.0 °F 68% 30.06 in 10.0 mi Calm Calm - N/A   Clear
8:53 PM 43.0 °F 40.3 °F 34.0 °F 71% 30.06 in 10.0 mi WNW 4.6 mph - N/A   Clear
9:53 PM 44.1 °F 41.5 °F 34.0 °F 68% 30.06 in 10.0 mi North 4.6 mph - N/A   Clear
10:53 PM 43.0 °F 39.5 °F 34.0 °F 71% 30.06 in 10.0 mi NNW 5.8 mph - N/A   Clear
11:53 PM 41.0 °F 37.1 °F 34.0 °F 76% 30.05 in 10.0 mi NNW 5.8 mph - N/A   Clear